Main page
METAR-TAF:

Airports :

Alpine, Texas, United States

Alpine-Casparis Municipal Airport

latitude: 30-23-03N, longitude: 103-41-00W, elevation: 1376 m

Current weather observation

The report was made 18 minutes ago, at 22:35 UTC
Calm wind
Temperature 27°C
Humidity 39%
Pressure 1021 hPa
Visibility: 16.1 km
Clear sky

METAR: KE38 292235Z AUTO 00000KT 10SM CLR 27/12 A3015 RMK AO2 T02690119

Time: 17:53 (22:53 UTC)


TAF: missing

METAR-TAF

Weather observations and forecasts of more than 4000 airports (METAR and TAF reports).

The available stations are represented by yellow and red dots on the map.

Hover mouse over dot to see the name of the station.

Then click to see weather observations and forecasts.

To change the map : click on the green buttons with a black cross to zoom in, on the green button with a dash to zoom out, or on the green arrows for adjacent maps.


METAR-TAF: